Location: Marcé
(47.5801°N, 0.3280°W)
Time: 02:45:13
(UTC+01:00)

Vanguard 1 Rocket - Pass Details

Date: 06 December 2021
Orbit: 651 x 4225 km, 34.3° (Epoch: 26 January)

Event Time Altitude Azimuth Distance (km) Brightness Sun altitude
Exits shadow 04:53:30 43° 208° (SSW) 3,106 9.7 -36.3°
Maximum altitude 04:57:16 50° 173° (S) 3,235 10.0 -35.6°
Drops below altitude 10° 05:17:38 10° 107° (ESE) 7,073 12.7 -32.2°
Sets 05:24:04 0° 104° (ESE) 8,353 13.4 -31.1°
